Tracking 30509 objects as of 18-May-2025
HD Live streaming from Space Station
objects crossing your sky now

THOR ABLESTAR DEB

Track THOR ABLESTAR DEB now!
10-day predictions


NORAD ID: 3125
Int'l Code: 1961-015HY
Perigee: 930.6 km
Apogee: 1,398.0 km
Inclination: 67.6 °
Period: 108.5 minutes
Semi major axis: 7535 km
RCS: 0.0125 m2 (small)
Launch date: June 29, 1961
Source: United States (US)
Launch site: AIR FORCE EASTERN TEST RANGE (AFETR)

Note: This is SATELLITE DEBRIS
Your satellite tracking list
Your tracking list is empty




NASA's NSSDC Master Catalog

Two Line Element Set (TLE):
1 03125U 61015HY  25136.76557130  .00000439  00000-0  85826-3 0  9993
2 03125  67.5589  16.3604 0310142 347.1928  81.3960 13.27235956 94911
Source of the keplerian elements: AFSPC